Theta_e
356 358 359 354 356 355 357 355 354 351 359 357 354 357 359 357 357 358 357 355 360 358 356 353 356 358 351 351 348 359 358 359 357 357 355 353 358 359 357 352 355 352 353
358 357 359 356 351 353 355 355 353 353 357 356 357 358 356 357 356 358 358 357 356 357 358 358 354 354 353 353 355 356 359 360 359 359 360 358 355 355 358 358 350 350 349
358 358 359 359 358 353 351 355 354 354 360 358 359 358 357 358 358 357 359 358 355 357 358 358 360 358 357 357 358 359 359 359 359 359 359 359 360 362 358 352 350 350 352
358 358 359 359 359 358 355 351 353 358 359 358 357 358 360 360 358 358 359 357 358 358 360 356 360 362 360 359 360 359 359 359 360 361 362 363 361 356 354 355 355 356 357
357 357 357 358 359 359 358 357 356 354 360 359 355 358 360 358 360 359 358 360 358 358 357 355 356 358 360 361 362 361 361 361 362 363 363 357 356 356 356 358 357 358 358
356 357 356 358 357 358 358 357 358 356 353 358 359 359 360 359 360 361 360 360 358 358 358 358 357 356 357 358 362 362 362 361 361 359 358 357 358 358 358 357 356 357 354
357 358 357 358 358 356 356 356 356 357 360 356 359 360 359 359 359 360 360 360 359 358 357 356 357 358 358 357 356 357 359 359 359 358 356 357 357 357 355 356 356 355 353
358 358 359 358 358 357 356 355 354 354 354 359 359 357 358 358 359 359 358 356 356 356 354 356 356 357 357 359 360 359 358 357 355 351 350 350 353 355 356 356 356 356 353
359 359 359 360 359 358 357 358 358 358 359 357 355 355 355 354 353 353 355 357 357 357 356 356 356 354 355 355 356 356 354 354 353 354 355 355 356 356 356 355 355 351 350
351 353 356 358 358 358 359 359 360 358 358 356 354 351 349 345 351 352 351 350 351 354 354 355 354 355 355 355 354 355 354 354 354 355 356 357 357 356 356 357 359 354 351
349 350 352 352 354 355 356 357 357 356 354 353 348 337 340 349 345 342 340 341 345 349 351 352 353 354 353 354 353 354 355 354 354 354 355 356 357 356 355 358 357 356 355
346 347 346 347 346 347 347 347 350 351 347 344 346 345 344 345 344 343 339 343 346 346 340 343 341 342 347 349 352 353 355 356 357 356 354 353 353 355 357 358 356 356 355
345 345 345 344 345 346 347 345 346 343 344 343 341 339 340 344 344 344 339 339 336 337 338 337 337 339 348 353 355 355 357 356 354 353 353 354 356 357 359 357 356 354 351
341 343 346 345 346 346 347 349 348 346 346 346 346 345 343 344 342 342 343 343 341 343 346 343 347 348 349 351 355 356 357 357 356 355 356 357 356 355 356 356 354 352 344
332 339 331 336 343 345 345 343 341 337 339 344 342 341 340 339 334 334 333 333 336 340 342 342 344 347 348 347 349 350 350 351 351 350 352 354 355 355 356 356 356 349 344
329 329 327 327 341 341 336 336 335 333 334 334 333 335 333 330 330 330 331 335 336 338 338 342 341 339 337 336 337 338 337 336 335 338 340 343 344 349 354 355 355 349 344
326 326 324 324 326 329 337 338 336 333 333 332 329 327 325 327 328 329 334 336 335 336 335 333 331 330 330 330 330 330 330 331 332 333 333 335 337 340 345 350 352 348 344
322 322 323 324 325 325 327 326 326 334 332 332 332 329 326 326 328 329 331 333 333 332 331 329 327 325 324 323 324 325 326 328 329 329 330 331 332 334 339 343 348 347 344
322 322 322 321 319 319 324 324 325 326 328 330 332 331 327 323 322 327 329 330 330 331 329 327 325 322 321 320 321 321 320 321 322 325 326 326 328 331 334 338 344 346 344
322 321 321 320 319 319 321 322 325 324 325 326 327 330 328 325 323 321 328 328 327 327 326 325 323 320 319 318 318 317 317 317 317 319 321 324 326 326 331 334 337 341 342
316 318 316 319 318 317 319 319 321 321 321 321 323 327 327 325 322 320 328 326 325 325 324 322 322 321 318 316 316 313 313 309 304 309 315 319 321 325 326 331 333 336 340
311 312 314 313 312 312 312 313 321 320 319 319 319 322 323 323 320 320 323 325 324 324 323 320 319 320 318 314 311 309 306 299 299 300 301 307 316 319 323 326 330 332 335
308 309 310 312 311 310 310 311 313 318 318 318 317 319 319 318 318 320 320 320 318 322 322 319 316 316 316 312 309 306 303 300 299 298 298 300 312 316 318 320 324 329 332
306 307 308 308 309 309 311 311 312 313 317 317 316 315 315 315 316 315 315 317 316 317 316 315 314 315 314 310 308 306 305 303 301 299 298 298 310 316 315 314 318 322 325
306 306 307 307 307 308 310 311 311 312 312 313 314 315 315 315 315 315 314 315 315 314 313 312 311 311 311 309 308 308 306 305 304 301 299 299 306 309 309 305 303 313 319
306 306 306 307 308 308 310 310 310 311 311 311 311 311 312 312 312 313 313 313 312 313 314 313 312 310 310 309 309 308 307 305 306 303 300 301 303 304 304 305 303 303 313
Wind_Speed
38 33 31 31 28 27 22 17 15 13 12 25 27 23 23 20 20 21 20 18 16 22 18 17 17 15 17 15 17 13 13 15 16 23 25 25 28 25 25 30 32 30 28
38 36 35 33 32 31 28 24 21 18 13 19 23 24 22 22 21 21 22 21 20 19 21 20 20 19 20 19 16 19 19 18 20 21 23 24 29 30 28 31 27 20 29
39 37 35 35 34 34 34 29 25 22 18 19 22 22 22 22 22 22 22 23 22 22 24 24 25 23 24 22 21 21 22 23 24 26 28 28 30 30 21 33 30 28 27
39 38 35 36 37 35 33 35 33 26 26 23 22 22 23 22 23 23 22 25 25 25 25 24 23 26 29 28 26 27 27 27 28 29 28 28 25 30 28 25 27 28 26
38 37 36 38 36 35 34 33 32 34 27 28 26 26 25 25 26 25 25 25 25 27 28 28 27 26 24 26 28 30 29 30 30 29 24 23 27 24 24 26 24 23 26
39 37 36 35 37 37 36 34 31 33 35 28 29 27 26 26 25 25 26 27 29 31 30 31 32 31 32 32 31 31 31 33 32 26 26 21 27 27 26 24 25 23 10
37 34 35 36 36 37 36 33 34 33 30 34 28 26 27 26 27 26 27 29 30 31 33 32 33 33 32 33 33 33 34 35 38 40 35 34 33 35 34 29 29 27 18
28 29 30 33 34 35 35 35 34 34 34 27 26 25 24 26 28 28 30 31 33 33 33 31 34 33 33 30 29 29 33 37 41 42 39 40 37 37 34 31 29 24 15
8 24 26 28 30 31 32 32 33 29 24 24 20 18 19 24 29 29 29 33 36 36 36 39 37 36 38 38 37 40 42 40 41 39 35 34 32 30 27 27 28 19 8
21 10 10 13 19 23 27 31 31 29 26 22 21 20 17 19 30 24 21 23 29 31 32 32 34 34 35 37 38 37 29 37 33 36 33 31 31 30 27 26 25 12 5
9 11 11 8 2 7 16 25 25 22 19 15 19 16 16 15 17 19 20 18 14 25 29 27 25 21 22 20 17 20 24 19 24 34 38 34 32 32 27 20 14 13 11
5 9 3 4 9 9 8 3 8 13 12 18 21 19 15 11 7 6 7 5 5 8 18 18 23 25 28 30 35 34 26 24 25 26 25 27 25 25 19 16 18 11 8
2 6 10 7 4 6 8 5 6 9 13 16 15 18 17 9 9 7 9 12 4 10 10 10 18 28 32 31 25 23 21 18 18 19 22 23 20 17 16 18 13 7 4
7 8 6 9 6 5 3 1 3 5 9 13 11 7 6 5 7 7 8 7 6 12 22 23 19 23 24 20 16 14 14 13 13 16 15 16 18 20 21 18 14 9 6
25 8 13 3 3 7 10 9 6 6 4 2 4 5 6 5 5 7 5 7 9 11 12 12 10 7 1 4 6 9 9 9 8 9 12 16 18 18 19 17 13 12 8
18 20 20 19 5 7 8 10 6 2 5 4 4 4 1 5 6 5 5 5 1 6 7 8 3 1 5 8 10 11 12 13 13 13 14 15 17 19 19 15 17 16 13
15 14 15 14 14 12 6 5 5 4 3 1 3 6 6 5 6 6 4 5 6 4 2 3 4 6 5 5 6 8 11 12 13 12 14 15 17 17 18 16 16 18 15
13 16 11 13 10 11 10 11 6 6 10 11 8 4 2 2 2 4 2 1 1 2 2 2 3 4 5 7 7 6 8 9 10 11 12 13 15 15 16 17 14 21 20
12 16 15 9 12 12 11 13 11 13 8 6 8 8 7 3 5 6 3 1 2 4 4 2 3 3 2 3 4 6 8 10 11 11 11 12 13 13 15 17 17 21 19
11 15 19 13 13 11 14 15 19 10 9 12 10 11 11 7 7 8 10 7 5 3 3 3 0 2 3 3 5 5 6 9 12 13 14 14 13 14 13 15 15 11 12
14 14 18 14 13 17 23 19 11 9 12 12 14 9 11 12 9 12 11 11 5 4 4 3 3 3 3 5 5 5 6 9 12 15 15 15 16 14 16 14 15 15 10
17 17 18 14 17 19 23 30 19 12 10 13 16 10 9 12 11 12 11 10 6 6 5 2 0 4 3 5 6 7 7 12 13 14 14 17 17 18 15 16 15 15 10
18 16 17 21 19 19 23 21 26 21 20 20 20 18 11 10 13 16 16 10 8 9 8 4 3 4 6 5 4 4 7 13 15 15 17 16 14 19 21 17 17 14 12
15 17 15 16 16 19 18 20 23 26 15 13 12 10 12 15 12 9 9 7 9 11 8 6 6 8 11 4 5 4 6 13 16 16 15 15 12 12 17 19 17 15 15
12 13 15 17 18 18 19 15 16 18 20 21 19 12 11 11 15 13 14 13 10 11 12 12 9 11 13 10 7 7 6 9 14 15 16 14 10 11 15 16 18 18 15
10 12 14 15 17 17 16 18 15 15 18 18 23 25 19 12 11 12 13 11 10 15 20 18 16 15 12 13 9 7 8 8 12 15 15 13 10 14 16 18 18 17 16
Wind_Direction
197 204 211 217 215 216 221 220 228 216 200 190 198 207 210 212 216 218 225 230 239 239 244 246 247 252 248 261 257 267 264 272 260 280 289 299 303 306 304 316 314 323 322
193 198 207 215 219 221 221 218 223 227 216 206 204 204 208 215 224 227 231 234 242 244 246 244 249 250 254 265 264 270 275 279 278 284 300 300 300 307 308 313 333 339 330
189 193 200 207 217 222 226 224 222 224 229 205 203 212 216 220 228 237 240 243 249 254 253 256 255 257 256 261 262 266 271 276 279 284 288 297 299 300 305 313 316 318 329
187 192 196 200 210 216 223 227 225 222 228 226 224 229 228 231 237 239 246 249 252 258 257 262 268 267 262 263 264 265 269 273 280 281 282 284 286 295 302 303 310 320 320
185 190 196 200 204 213 216 222 226 221 223 232 235 235 240 245 245 247 247 252 255 260 264 267 268 274 274 274 270 270 270 270 271 273 275 284 288 294 293 303 302 310 317
185 190 194 199 202 209 214 217 221 226 228 231 235 236 240 244 252 254 254 254 255 256 259 263 264 265 267 270 272 273 272 271 267 270 276 277 281 285 291 293 293 297 313
184 188 192 197 201 207 214 219 223 225 226 229 231 237 246 252 251 252 255 259 263 263 263 265 269 267 266 269 273 272 277 277 275 274 273 274 277 283 292 291 291 301 335
181 186 192 197 203 209 213 218 225 229 225 228 231 237 248 252 256 260 261 263 265 267 268 267 263 267 267 264 266 275 278 280 283 285 282 283 287 290 295 298 293 292 297
144 197 195 202 208 213 214 220 223 217 216 222 226 240 261 278 280 272 269 269 268 267 270 273 274 272 271 272 274 276 278 280 282 283 281 284 286 291 296 299 292 284 244
36 21 215 223 230 227 231 225 219 216 210 206 216 236 245 265 275 280 284 298 308 286 277 273 276 276 278 279 273 269 270 276 284 286 286 285 286 290 297 304 298 260 193
71 32 36 35 322 284 263 233 216 200 192 213 237 252 262 268 280 299 303 289 320 319 299 285 281 288 301 279 280 276 274 289 289 276 275 277 281 290 303 301 292 283 286
127 113 32 358 356 328 299 91 165 181 168 248 237 249 260 256 288 283 351 354 29 342 336 309 287 292 304 293 292 288 294 280 277 278 282 283 287 295 297 282 301 295 294
43 116 125 104 232 270 275 243 213 207 206 232 250 252 257 254 270 287 316 311 312 322 339 342 256 268 291 282 277 297 305 299 285 278 286 292 294 294 293 300 289 281 237
10 35 50 55 83 293 224 248 222 216 207 216 214 225 242 229 258 287 293 279 242 216 233 237 258 280 282 295 306 314 302 306 305 290 294 297 298 298 300 290 263 220 189
43 69 26 34 103 155 87 61 351 311 281 203 231 235 244 264 318 321 315 271 238 229 238 257 263 263 113 9 1 5 0 4 2 348 342 332 324 321 307 294 263 210 214
26 20 13 19 204 139 129 136 196 160 102 103 105 134 45 344 344 0 326 320 250 213 188 169 209 40 33 15 2 353 351 345 346 346 337 331 329 332 334 316 242 209 219
9 4 1 14 16 50 144 205 273 298 290 255 104 101 71 54 36 18 9 68 59 84 114 48 5 0 29 25 7 357 344 341 343 352 349 345 340 332 331 329 249 219 218
345 339 322 358 8 352 337 334 337 266 288 282 236 219 138 142 74 66 53 64 91 70 52 76 75 38 17 17 5 360 359 3 2 360 353 345 342 336 330 322 281 229 221
333 330 336 323 336 324 306 314 313 304 285 308 247 238 225 230 300 230 221 182 108 131 123 103 24 26 16 8 22 11 10 9 7 11 8 357 2 356 345 342 326 234 224
320 322 329 290 293 297 293 295 269 286 291 289 283 248 206 227 275 296 228 206 182 140 119 131 294 314 319 342 355 10 21 4 2 5 11 10 2 4 354 349 350 325 236
354 347 358 333 322 332 312 284 268 287 297 306 308 262 231 220 280 300 219 211 201 202 227 260 268 316 358 343 344 357 13 12 4 359 359 1 4 360 359 352 348 347 290
331 332 336 343 335 339 337 347 261 251 247 266 276 276 246 255 272 287 288 214 217 227 232 252 223 244 295 351 12 2 14 9 7 6 4 1 354 358 359 355 348 349 339
329 324 321 321 332 338 337 333 336 283 248 261 264 261 245 256 270 264 270 233 244 226 223 251 328 221 241 333 4 16 18 7 4 359 356 360 3 357 354 347 343 347 331
321 327 332 329 326 326 332 332 334 346 307 249 237 258 257 254 251 253 280 255 239 216 222 251 273 248 224 235 214 263 343 4 5 359 352 347 356 2 347 345 344 333 338
320 319 317 313 318 313 314 320 333 339 347 352 1 325 311 294 256 262 262 256 248 214 219 230 252 247 221 202 233 253 280 336 357 356 353 351 349 347 339 347 346 340 334
305 296 300 294 292 293 295 309 324 333 339 343 347 335 328 330 330 323 312 291 281 272 265 245 232 229 239 228 247 260 281 317 354 3 357 352 343 337 325 330 341 337 339